Date,TemperatureHighF,TemperatureAvgF,TemperatureLowF,DewpointHighF,DewpointAvgF,DewpointLowF,HumidityHigh,HumidityAvg,HumidityLow,PressureMaxIn,PressureMinIn,WindSpeedMaxMPH,WindSpeedAvgMPH,GustSpeedMaxMPH,PrecipitationSumIn
2013-1-1,44.2,40.1,29.6,32.0,28.3,16.2,74,63,53,30.00,29.82,25,8,25,0.89
2013-1-2,34.3,29.6,24.6,19.7,15.8,11.6,64,56,49,30.18,29.98,25,7,26,0.00
2013-1-3,37.7,31.4,26.1,21.5,18.5,16.8,70,59,45,30.20,30.07,18,5,18,0.00
2013-1-4,39.2,36.4,31.6,24.9,23.2,21.2,69,59,52,30.12,29.97,32,8,32,0.01
2013-1-5,44.6,37.8,32.5,26.3,23.6,20.3,64,57,46,30.30,30.02,22,6,22,0.00
2013-1-6,49.4,41.3,33.7,36.2,31.1,23.9,91,68,50,30.24,29.97,18,4,18,0.04
2013-1-7,48.2,41.5,37.1,31.4,28.7,24.5,74,61,43,30.40,30.05,21,5,22,0.00
2013-1-8,52.9,42.1,34.0,34.7,31.3,26.4,80,66,49,30.44,30.34,21,4,21,0.00
2013-1-9,53.6,45.3,36.6,42.8,38.1,32.8,89,76,55,30.39,30.13,23,4,23,0.00
2013-1-10,50.2,45.2,40.5,34.5,28.6,25.3,70,53,40,30.53,30.25,27,7,28,0.00
2013-1-11,46.7,44.1,41.3,45.1,39.3,30.6,96,84,63,30.52,30.05,22,8,22,0.48
2013-1-12,47.3,45.3,43.5,46.2,44.3,42.6,97,96,94,30.17,30.04,13,4,13,0.01
2013-1-13,44.3,42.1,41.7,43.5,41.3,40.8,97,97,97,30.14,30.10,7,4,8,0.00
2013-1-14,41.8,41.8,41.8,41.0,41.0,41.0,97,97,97,30.12,30.12,5,5,8,0.00
2013-1-15,41.8,41.8,41.8,41.0,41.0,41.0,97,97,97,30.12,30.12,5,5,8,0.00
2013-1-16,41.8,41.8,41.8,41.0,41.0,41.0,97,97,97,30.12,30.12,5,5,8,0.00
2013-1-17,41.8,41.8,41.8,41.0,41.0,41.0,97,97,97,30.12,30.12,5,5,8,0.00
2013-1-18,41.8,41.8,41.8,41.0,41.0,41.0,97,97,97,30.12,30.12,5,5,8,0.00
2013-1-19,41.8,41.8,41.8,41.0,41.0,41.0,97,97,97,30.12,30.12,5,5,8,0.00
2013-1-20,41.8,41.8,41.8,41.0,41.0,41.0,97,97,97,30.12,30.12,5,5,8,0.00
2013-1-21,41.8,41.8,41.8,41.0,41.0,41.0,97,97,97,30.12,30.12,5,5,8,0.00
2013-1-22,41.8,41.8,41.8,41.0,41.0,41.0,97,97,97,30.12,30.12,5,5,8,0.00
2013-1-23,41.8,22.2,15.5,41.0,11.8,1.8,97,65,54,30.26,30.12,10,7,10,0.76
2013-1-24,15.5,15.5,15.5,1.8,1.8,1.8,54,54,54,30.26,30.26,8,8,10,0.76
2013-1-25,15.5,15.5,15.5,1.8,1.8,1.8,54,54,54,30.26,30.26,8,8,10,0.76
2013-1-26,28.0,19.5,15.5,10.0,4.8,1.8,58,52,44,30.38,30.16,18,8,24,0.76
2013-1-27,37.2,27.9,19.8,18.9,13.6,8.6,67,55,41,30.53,30.38,22,7,22,0.00
2013-1-28,38.9,33.4,28.3,36.8,26.7,15.2,92,77,56,30.50,30.01,17,4,17,0.09
2013-1-29,52.9,42.0,37.2,44.4,39.1,33.8,95,90,73,30.14,30.00,13,4,13,0.00
2013-1-30,58.1,45.2,40.7,57.2,44.3,39.6,100,97,95,30.07,29.40,30,9,30,0.02
2013-1-31,58.7,45.7,32.4,57.9,33.7,13.9,97,65,39,29.83,29.10,44,16,45,0.47
2013-2-1,33.3,30.0,27.0,18.7,13.2,6.7,64,49,37,30.25,29.83,32,9,38,0.00
2013-2-2,35.9,28.7,21.0,22.4,12.0,5.2,84,51,31,30.32,30.06,21,7,23,0.00
2013-2-3,34.1,28.2,23.9,25.2,22.3,19.8,90,79,64,30.06,29.79,16,3,17,0.02
2013-2-4,33.7,29.6,24.2,25.8,15.9,11.2,85,57,43,30.00,29.83,28,8,29,0.00
2013-2-5,34.9,32.2,27.0,32.8,29.5,21.9,93,90,75,29.97,29.88,14,4,14,0.01
2013-2-6,40.6,35.4,32.1,31.9,26.1,18.9,92,70,49,30.31,29.91,26,8,26,0.00
2013-2-7,40.0,34.8,30.2,35.7,25.4,18.3,85,69,60,30.47,30.29,23,13,23,0.00
2013-2-8,41.4,37.4,28.4,39.4,35.4,27.4,96,93,84,30.29,29.60,40,19,41,0.64
2013-2-9,33.4,27.9,22.4,28.6,20.3,9.4,97,76,44,30.34,29.73,37,13,37,0.00
2013-2-10,35.9,27.2,17.3,29.7,16.8,9.0,79,65,38,30.49,30.32,18,4,19,0.01
2013-2-11,53.2,43.2,34.4,52.3,41.2,27.9,98,93,75,30.34,29.63,24,5,24,0.22
2013-2-12,47.2,42.5,36.1,42.9,29.7,25.3,92,61,47,29.97,29.72,36,8,36,0.00
2013-2-13,39.5,35.6,30.8,32.0,28.7,24.4,94,76,63,29.96,29.66,14,5,14,0.08
2013-2-14,42.9,37.7,32.6,36.3,33.9,31.1,95,86,72,30.01,29.68,16,5,17,0.05
2013-2-15,50.9,42.0,36.7,40.1,36.4,31.8,90,81,62,30.02,29.91,16,5,16,0.00
2013-2-16,44.9,36.6,31.5,34.1,29.4,18.5,92,76,59,29.94,29.71,22,7,24,0.00
2013-2-17,32.7,28.2,20.0,19.7,8.6,1.3,65,44,32,30.02,29.66,39,16,42,0.00
2013-2-18,38.4,27.8,18.1,15.3,8.2,1.5,52,44,33,30.29,30.02,36,10,37,0.00
2013-2-19,47.3,39.9,30.3,45.5,33.8,13.9,95,79,50,30.23,29.69,31,8,33,0.11
2013-2-20,40.4,32.7,27.0,29.6,16.6,10.7,66,51,41,30.02,29.74,36,14,36,0.00
2013-2-21,35.9,29.6,25.2,17.0,14.7,11.4,64,54,44,30.27,29.99,38,13,39,0.00
2013-2-22,39.5,32.4,25.8,36.4,26.1,15.4,89,77,64,30.39,30.25,15,7,15,0.00
2013-2-23,41.7,39.9,37.2,41.0,38.6,36.2,100,95,89,30.26,29.77,22,10,22,0.37
2013-2-24,47.9,39.7,33.4,40.1,32.9,22.6,97,78,54,29.98,29.73,33,9,33,0.01
2013-2-25,43.7,37.6,30.6,34.1,28.0,22.5,78,68,53,30.23,29.98,16,5,17,0.00
2013-2-26,41.6,37.4,31.5,36.7,31.9,26.8,89,80,72,30.28,30.14,34,9,34,0.00
2013-2-27,53.4,46.6,42.4,51.2,42.5,38.3,98,86,67,29.66,29.48,38,7,38,0.00
2013-2-28,50.4,44.5,38.8,41.2,36.1,30.4,93,73,57,29.63,29.54,21,5,21,0.00
2013-3-1,44.2,39.8,34.5,33.2,30.0,27.3,85,69,53,29.77,29.61,21,8,21,0.00
2013-3-2,42.7,36.5,31.4,27.5,25.0,23.4,75,63,50,29.78,29.69,21,8,21,0.00
2013-3-3,39.6,33.2,29.8,24.3,21.0,18.6,75,61,48,29.77,29.67,25,9,27,0.00
2013-3-4,42.4,34.6,27.7,24.1,20.4,16.4,68,56,45,29.91,29.76,33,12,33,0.00
2013-3-5,43.2,37.4,31.2,35.7,27.9,21.4,86,69,51,30.01,29.90,22,6,22,0.00
2013-3-6,40.4,39.2,36.2,36.9,34.9,31.9,91,85,79,29.96,29.76,54,24,57,0.07
2013-3-7,38.2,35.4,32.9,34.1,32.0,29.7,99,87,78,30.07,29.87,31,10,31,0.19
2013-3-8,41.8,34.7,31.4,34.3,31.7,30.0,96,89,69,30.16,29.99,25,9,26,0.08
2013-3-9,54.8,43.5,35.2,36.0,27.6,20.0,87,57,26,30.31,30.15,23,7,23,0.00
2013-3-10,39.0,37.9,34.0,36.6,34.6,31.6,93,88,84,30.40,30.31,16,7,16,0.00
2013-3-11,46.0,41.5,37.1,44.9,40.0,35.5,96,94,91,30.32,30.09,19,4,19,0.00
2013-3-12,54.1,47.2,43.7,53.2,45.4,39.3,100,94,75,30.10,29.68,31,8,32,0.50
2013-3-13,50.9,44.3,39.4,39.2,32.5,25.3,86,65,39,29.90,29.80,31,7,31,0.00
2013-3-14,42.1,36.8,31.9,28.2,17.3,10.7,63,46,32,29.97,29.86,40,13,40,0.01
2013-3-15,49.9,40.7,31.1,28.5,20.9,11.6,55,45,39,30.00,29.72,30,8,31,0.00
2013-3-16,45.2,36.5,32.1,34.2,28.8,23.3,95,75,50,29.91,29.77,16,5,16,0.02
2013-3-17,38.9,34.3,30.3,32.6,22.9,17.6,94,65,45,30.29,29.91,24,6,26,0.00
2013-3-18,38.9,35.0,31.5,37.9,27.2,15.3,96,74,49,30.40,29.97,39,20,39,0.13
2013-3-19,48.2,41.3,37.6,39.4,36.0,19.4,96,83,40,29.96,29.69,35,10,35,0.25
2013-3-20,49.2,41.5,34.8,27.1,21.0,17.9,61,45,32,29.91,29.79,33,8,33,0.00
2013-3-21,41.0,33.2,28.6,29.5,23.6,16.5,90,69,46,29.81,29.65,23,6,25,0.00
2013-3-22,41.9,36.3,30.6,24.0,20.3,16.4,64,52,40,29.90,29.75,26,9,28,0.00
2013-3-23,46.4,39.6,33.3,23.7,21.6,19.1,63,49,36,29.93,29.82,30,9,32,0.00
2013-3-24,42.7,37.7,32.6,29.7,24.1,18.8,71,58,42,29.96,29.70,19,7,21,0.00
2013-3-25,38.9,36.0,32.5,34.2,32.7,29.3,96,88,70,29.70,29.45,37,15,37,0.33
2013-3-26,50.2,42.8,35.0,37.4,32.7,28.1,96,70,44,29.86,29.58,18,6,18,0.02
2013-3-27,41.9,38.3,35.5,32.3,29.2,26.3,74,70,63,29.94,29.85,20,7,20,0.00
2013-3-30,54.1,46.7,43.8,39.2,35.6,24.6,83,66,35,30.17,30.08,18,6,19,0.00
2013-3-31,48.8,44.2,39.2,47.7,38.3,29.5,96,81,53,30.13,29.67,33,7,37,0.20
2013-4-1,65.8,52.0,39.7,48.1,39.9,14.5,96,67,35,29.90,29.60,38,8,38,0.02
2013-4-2,44.9,39.9,34.4,19.5,16.4,12.5,54,39,29,30.09,29.90,28,9,32,0.00
2013-4-3,46.8,41.6,35.1,18.6,15.4,11.4,45,35,27,30.29,30.08,33,12,33,0.00
2013-4-4,45.4,39.4,32.9,34.4,24.6,11.8,76,56,35,30.38,30.10,24,7,25,0.00
2013-4-5,60.6,45.6,37.4,40.7,32.6,22.8,91,65,25,30.10,29.70,27,5,27,0.12
2013-4-6,44.9,39.9,36.0,31.4,23.9,13.7,70,53,33,30.32,29.98,24,8,25,0.00
2013-4-7,50.8,44.1,38.9,46.2,38.1,29.5,91,80,67,30.32,30.02,29,9,30,0.00
2013-4-8,54.7,49.9,45.1,47.9,44.8,41.3,94,83,71,30.08,29.97,19,4,19,0.00
2013-4-9,82.9,64.7,45.2,55.5,48.5,42.1,96,62,26,29.99,29.89,28,7,34,0.00
2013-4-10,68.0,54.9,48.8,56.8,48.7,44.9,94,80,62,29.93,29.75,35,6,36,0.26
2013-4-11,58.8,50.9,45.2,57.8,49.4,42.9,100,95,90,30.01,29.74,25,8,26,0.03
2013-4-12,45.4,43.4,42.1,43.5,42.3,41.1,97,96,90,29.99,29.68,39,17,40,0.40
2013-4-13,47.9,45.2,41.8,45.6,42.6,40.2,100,91,84,29.98,29.72,15,6,15,0.19
2013-4-14,59.3,51.3,44.9,47.9,39.1,27.6,95,67,34,30.20,29.97,34,6,34,0.00
2013-4-15,48.6,46.4,44.9,43.8,39.4,34.1,91,77,65,30.37,30.20,24,8,25,0.00
2013-4-16,55.3,50.3,46.3,51.8,47.6,43.5,93,90,87,30.37,30.13,25,7,25,0.00
2013-4-17,56.3,53.5,51.8,52.8,46.1,38.7,91,77,57,30.28,30.18,0,0,0,0.00
2013-4-18,52.5,50.4,48.3,51.0,46.8,38.9,96,88,60,30.34,30.09,0,0,0,0.00
2013-4-19,63.9,53.6,50.3,63.3,52.8,49.5,98,97,92,30.09,29.68,0,0,0,0.01
2013-4-20,57.4,52.8,48.5,55.9,39.0,27.9,98,63,35,30.23,29.68,0,0,0,0.34
2013-4-22,45.1,44.4,43.6,40.8,38.2,35.1,86,79,71,30.64,30.47,0,0,0,0.34
2013-4-23,49.9,45.0,41.1,43.5,40.4,37.3,94,84,77,30.47,30.10,0,0,0,0.00
2013-4-24,59.1,48.1,42.0,50.0,44.5,38.3,95,88,63,30.10,29.84,0,0,0,0.00
2013-4-25,58.5,51.1,46.9,53.7,40.7,28.9,95,69,34,30.27,29.89,0,0,0,0.02
2013-4-26,59.2,51.3,45.2,46.3,41.0,34.6,79,69,42,30.39,30.27,0,0,0,0.00
2013-4-27,54.9,52.0,48.0,46.2,40.8,35.4,78,66,51,30.42,30.30,0,0,0,0.00
2013-4-28,55.1,51.6,47.6,48.2,44.7,38.3,88,77,67,30.32,30.21,0,0,0,0.00
2013-4-29,55.8,51.2,50.0,49.4,48.3,46.6,93,90,75,30.23,30.16,0,0,0,0.11
2013-4-30,53.1,51.2,49.5,49.6,46.9,43.7,93,86,75,30.32,30.18,0,0,0,0.01
2013-5-1,52.2,49.9,46.7,48.3,45.6,43.3,94,85,76,30.47,30.31,0,0,0,0.00
2013-5-2,55.7,52.3,49.5,48.7,47.0,45.6,90,82,72,30.46,30.33,0,0,0,0.00
2013-5-3,52.4,50.5,48.6,48.5,44.5,40.9,89,80,67,30.46,30.34,0,0,0,0.00
2013-5-4,53.7,49.9,46.3,48.7,45.0,41.4,91,83,77,30.36,30.26,0,0,0,0.00
2013-5-5,50.7,48.0,46.4,44.8,42.5,39.8,90,81,76,30.30,30.23,0,0,0,0.00
2013-5-6,52.4,49.3,47.1,49.6,46.8,44.3,96,91,87,30.27,30.16,0,0,0,0.00
2013-5-7,54.9,51.2,47.9,54.1,50.3,46.8,98,97,96,30.16,30.07,0,0,0,0.04
2013-5-8,59.3,56.4,55.0,57.0,55.2,53.6,98,96,91,30.08,29.96,0,0,0,0.80
2013-5-9,67.0,57.5,53.6,60.6,55.4,52.5,97,93,74,29.99,29.89,0,0,0,0.07
2013-5-10,68.3,60.5,57.3,60.8,57.2,55.0,93,89,75,29.99,29.87,12,3,13,0.03
2013-5-11,65.8,59.4,55.1,61.1,57.7,53.8,98,94,83,29.89,29.69,22,6,22,0.02
2013-5-12,67.5,60.7,51.7,62.8,45.8,29.5,98,63,29,29.94,29.65,33,9,33,0.02
2013-5-13,57.5,51.0,44.0,36.9,31.7,25.1,71,49,34,30.09,29.94,27,7,27,0.00
2013-5-14,60.9,49.8,39.8,47.9,35.2,24.8,83,60,29,30.13,30.03,24,7,24,0.00
2013-5-15,64.9,54.4,49.3,59.5,49.2,33.9,92,83,54,30.08,29.68,19,2,20,0.00
2013-5-16,69.0,62.1,56.4,61.3,55.1,49.6,90,78,62,29.84,29.69,16,3,17,0.01
2013-5-17,71.3,63.4,57.5,61.1,46.7,40.6,81,56,34,30.18,29.81,18,5,19,0.00
2013-5-18,58.0,56.4,55.3,54.8,52.7,48.5,93,87,76,30.30,30.18,16,4,17,0.01
2013-5-19,56.6,55.4,54.6,56.0,54.2,52.9,98,96,91,30.29,30.15,27,11,27,0.22
2013-5-20,65.5,58.2,54.9,64.3,57.3,54.2,100,97,93,30.16,29.96,11,3,11,0.01
2013-5-21,79.8,64.3,58.7,70.7,61.7,57.1,97,91,66,29.97,29.83,17,5,17,0.00
2013-5-22,68.8,60.7,55.7,66.8,59.5,54.3,100,96,89,29.91,29.82,19,5,19,0.00
2013-5-23,66.8,59.0,55.3,66.1,57.6,54.1,98,95,91,29.90,29.75,22,8,22,0.00
2013-5-24,67.0,54.8,44.1,64.7,52.7,41.6,98,93,82,29.95,29.67,31,3,33,0.08
2013-5-25,57.6,50.0,43.4,45.9,41.6,35.8,94,75,50,30.01,29.90,0,0,0,0.03
2013-5-26,67.7,58.3,48.2,40.4,37.6,33.8,72,48,29,30.19,29.98,0,0,0,0.01
2013-5-27,67.8,58.1,49.1,52.4,44.0,36.1,79,61,35,30.24,30.12,0,0,0,0.00
2013-5-28,60.5,56.3,53.9,55.6,51.8,46.3,97,86,60,30.22,30.10,0,0,0,0.21
2013-5-29,68.3,60.0,54.4,64.5,57.5,53.3,97,92,82,30.12,30.00,0,0,0,0.08
2013-5-30,85.7,70.1,60.2,70.6,63.9,57.2,94,81,51,30.11,30.04,15,3,15,0.00
2013-5-31,86.3,69.9,60.7,71.9,64.1,57.4,91,82,58,30.11,29.99,17,5,17,0.00
2013-6-1,79.1,65.0,58.8,69.3,61.1,56.0,94,87,64,30.02,29.91,17,6,21,0.00
2013-6-2,70.8,60.5,56.1,68.8,58.2,54.3,97,92,85,29.92,29.79,19,5,19,0.09
2013-6-3,69.6,62.5,54.8,67.8,61.3,53.3,98,96,89,29.85,29.77,0,0,0,0.07
2013-6-4,67.0,62.2,59.0,65.1,51.3,45.6,95,68,57,30.00,29.85,0,0,0,0.01
2013-6-10,65.5,64.0,63.6,64.8,63.5,63.0,99,98,98,29.89,29.80,15,6,15,0.01
2013-6-11,84.0,74.1,63.3,71.0,66.8,62.6,99,80,58,29.80,29.61,26,8,27,0.00
2013-6-12,80.7,71.9,66.2,62.8,58.9,54.3,84,65,43,29.83,29.70,28,8,28,0.00
2013-6-13,68.1,65.3,59.5,65.5,61.5,56.3,97,88,67,29.83,29.39,30,7,32,0.00
2013-6-14,67.6,60.4,54.8,60.1,55.2,51.9,97,83,65,29.88,29.45,25,7,25,0.00
2013-6-15,80.8,69.4,59.9,64.1,57.7,54.3,88,69,41,30.00,29.88,18,6,19,0.00
2013-6-16,85.3,71.3,63.8,69.2,62.4,57.8,92,75,52,29.99,29.77,33,6,33,0.00
2013-6-17,86.2,71.0,64.4,70.6,65.9,62.0,95,84,54,29.90,29.81,19,4,20,0.01
2013-6-18,70.7,66.7,64.1,68.3,63.9,61.7,95,91,84,29.88,29.78,27,4,27,0.00
2013-6-19,70.8,66.4,62.2,64.2,57.8,52.6,95,75,57,30.15,29.84,16,6,16,0.00
2013-6-20,74.0,66.1,58.7,61.7,58.0,52.1,88,76,49,30.26,30.15,19,6,19,0.03
2013-6-21,69.3,65.0,59.7,62.9,59.5,55.4,87,83,72,30.30,30.24,14,5,14,0.07
2013-6-22,69.5,65.1,59.8,64.8,61.3,57.1,94,88,67,30.25,30.13,15,4,17,0.07
2013-6-23,79.5,69.3,65.1,69.3,64.1,56.6,97,84,67,30.18,30.06,19,5,19,0.03
2013-6-24,93.6,78.9,65.9,76.2,70.6,63.6,97,78,50,30.07,29.94,24,5,26,0.01
2013-6-25,93.3,81.0,69.3,74.1,69.5,64.2,90,70,49,29.97,29.79,24,6,24,0.02
2013-6-26,91.1,76.7,70.3,71.1,68.0,65.0,94,76,48,29.84,29.76,31,6,31,0.00
2013-6-27,77.8,72.7,70.1,73.5,70.6,68.5,97,93,84,29.79,29.57,29,7,30,0.01
2013-6-28,86.0,72.4,66.2,73.3,68.1,63.8,97,87,59,29.58,29.46,20,6,20,0.00
2013-6-29,80.8,69.0,64.4,71.4,66.4,62.3,96,92,69,29.69,29.48,18,4,19,0.00
2013-6-30,68.8,66.0,62.9,67.5,64.9,61.7,98,96,94,29.90,29.69,14,4,15,0.00
2013-7-1,72.1,66.6,64.5,71.2,65.8,63.6,99,97,95,30.04,29.88,15,5,16,0.00
2013-7-2,73.1,66.2,63.1,71.5,65.1,62.5,99,96,91,30.18,30.04,17,5,18,0.00
2013-7-3,75.5,66.3,63.0,74.0,65.0,61.5,98,96,93,30.25,30.15,17,4,17,0.00
2013-7-4,81.5,70.5,64.7,76.6,68.2,63.3,98,92,75,30.25,30.16,17,5,17,0.00
2013-7-5,85.6,73.2,67.7,76.1,69.4,63.9,93,88,66,30.20,30.08,17,6,17,0.00
2013-7-6,95.9,83.7,74.6,77.3,73.9,67.7,92,74,51,30.14,29.99,18,5,21,0.01
2013-7-7,94.0,82.2,75.7,77.7,73.5,69.7,87,76,55,30.04,29.90,21,6,22,0.04
2013-7-8,90.4,78.6,72.6,73.5,70.1,67.5,86,76,54,30.03,29.96,16,6,20,0.03
2013-7-9,86.4,75.3,70.9,74.3,70.1,67.0,92,84,62,30.05,29.97,37,4,38,0.01
2013-7-10,88.0,73.7,66.3,76.9,69.7,64.5,95,88,61,30.00,29.80,23,5,26,0.02
2013-7-11,83.0,75.5,67.4,74.9,70.9,64.4,94,86,65,29.88,29.79,17,4,17,0.02
2013-7-12,134.6,116.2,68.8,99.9,92.9,63.5,100,96,72,30.04,29.88,32,12,32,0.11
2013-7-13,136.3,109.9,-11.7,99.9,80.2,-77.2,100,89,2,30.26,30.04,27,5,27,0.04
2013-7-14,149.9,116.8,-11.0,99.9,90.5,-76.8,100,95,2,30.32,30.22,16,5,16,0.01
2013-7-15,140.5,88.9,-10.1,99.9,83.0,-85.8,100,82,1,30.24,30.08,18,6,18,0.00
2013-7-16,89.3,85.2,80.6,74.0,70.7,66.2,72,62,50,30.15,30.08,14,4,15,0.00
2013-7-17,86.5,81.5,76.7,76.8,73.1,69.7,85,76,61,30.15,30.04,12,4,12,0.00
2013-7-18,92.0,83.1,78.1,79.6,75.3,70.0,87,78,62,30.05,29.93,15,5,15,0.00
2013-7-19,98.3,86.3,80.1,80.3,77.3,74.2,88,75,52,29.94,29.78,22,6,22,0.00
2013-7-20,96.0,85.8,76.1,77.0,73.9,70.3,87,69,47,29.81,29.69,23,7,26,0.00
2013-7-21,80.5,76.6,74.2,74.0,71.1,67.0,93,84,69,29.92,29.80,20,5,20,0.00
2013-7-22,77.6,75.5,74.0,75.6,74.1,73.0,97,95,93,29.92,29.81,15,6,15,0.09
2013-7-26,74.2,72.6,70.1,68.8,66.9,65.0,88,82,76,30.04,30.00,16,5,16,0.00
2013-7-27,76.6,71.2,66.0,70.1,67.4,63.1,93,88,74,30.05,29.95,16,5,16,0.00
2013-7-28,74.1,71.1,67.7,71.6,69.1,65.9,96,93,90,29.98,29.92,15,5,15,0.10
2013-7-29,82.2,73.0,67.8,71.7,66.5,57.4,96,82,45,30.09,29.93,25,4,25,0.06
2013-7-30,80.7,72.8,64.1,65.7,59.6,57.1,79,64,46,30.15,30.08,15,5,16,0.00
2013-7-31,76.5,71.8,65.5,67.6,63.1,58.5,81,74,63,30.15,30.03,13,5,13,0.00
2013-8-1,72.8,71.1,69.1,69.8,66.7,62.8,96,86,74,30.03,29.82,27,5,30,0.45
2013-8-2,84.4,74.8,67.8,69.6,66.4,62.9,96,77,49,29.91,29.79,22,4,22,0.00
2013-8-3,78.5,72.6,68.7,68.2,66.0,64.3,87,80,67,29.91,29.84,18,5,22,0.01
2013-8-4,79.9,72.2,64.3,64.7,59.6,54.8,93,67,45,29.95,29.83,23,6,23,0.00
2013-8-5,76.8,68.4,60.3,61.4,54.4,48.7,76,62,38,30.04,29.95,16,6,16,0.00
2013-8-6,75.0,70.3,63.3,64.6,60.3,54.4,78,71,59,30.11,30.03,17,6,17,0.00
2013-8-7,74.7,72.2,70.8,69.3,67.0,64.0,92,84,78,30.13,30.05,21,8,22,0.00
2013-8-8,78.0,72.1,69.7,74.8,70.2,68.0,97,94,88,30.06,30.00,27,6,27,0.62
2013-8-9,83.0,72.7,69.1,77.5,70.9,68.0,98,94,80,30.01,29.80,18,6,18,0.06
2013-8-10,83.0,77.5,72.7,75.0,67.8,62.4,95,74,53,30.02,29.84,16,5,16,0.01
2013-8-11,73.7,71.2,66.5,69.7,62.6,58.5,92,75,62,30.11,30.02,12,5,14,0.00
2013-8-12,75.8,72.5,69.7,71.3,69.4,66.8,93,90,85,30.03,29.91,10,3,11,0.01
2013-8-13,73.9,71.9,69.3,73.3,69.9,67.4,98,93,86,29.92,29.70,24,4,26,0.01
2013-8-14,73.5,68.3,61.9,69.2,55.4,49.8,94,65,49,30.03,29.72,25,9,25,0.01
2013-8-15,71.5,65.9,57.2,58.2,54.6,51.3,81,68,54,30.13,30.03,16,6,16,0.00
2013-8-16,74.2,68.7,60.3,63.3,58.4,54.4,84,70,55,30.19,30.11,14,5,15,0.01
2013-8-17,74.4,69.1,61.6,64.4,60.7,57.0,85,75,63,30.26,30.19,10,4,10,0.01
2013-8-18,72.5,69.6,66.0,65.1,61.7,53.4,87,76,56,30.24,30.11,18,7,18,0.00
2013-8-19,78.5,70.9,63.3,65.3,61.3,56.1,85,72,53,30.13,30.02,16,4,16,0.01
2013-8-20,80.5,73.0,66.3,71.7,68.0,63.7,92,85,71,30.11,30.04,16,6,17,0.01
2013-8-21,84.2,75.4,69.8,73.6,70.0,62.8,91,84,49,30.16,30.05,12,5,13,0.01
2013-8-22,78.8,76.9,72.7,73.6,72.0,68.3,89,85,81,30.06,30.00,14,5,14,0.01
2013-8-23,78.8,78.8,78.8,73.6,73.6,73.6,84,84,84,30.00,30.00,6,6,14,0.01
2013-8-24,78.8,78.8,78.8,73.6,73.6,73.6,84,84,84,30.00,30.00,6,6,14,0.01
2013-8-25,78.8,78.8,78.8,73.6,73.6,73.6,84,84,84,30.00,30.00,6,6,14,0.01
2013-8-26,78.8,78.8,78.8,73.6,73.6,73.6,84,84,84,30.00,30.00,6,6,14,0.01
2013-8-27,78.8,78.8,78.8,73.6,73.6,73.6,84,84,84,30.00,30.00,6,6,14,0.01
2013-8-28,78.8,78.8,78.8,73.6,73.6,73.6,84,84,84,30.00,30.00,6,6,14,0.01
2013-8-29,78.8,78.8,78.8,73.6,73.6,73.6,84,84,84,30.00,30.00,6,6,14,0.01
2013-8-30,85.3,79.2,72.6,73.6,71.9,68.3,87,79,60,30.00,29.86,19,6,19,0.03
2013-8-31,85.8,75.1,70.3,74.4,70.8,67.9,93,87,69,29.88,29.78,20,6,20,0.00
2013-9-1,77.1,72.5,68.9,73.1,70.3,67.8,98,93,84,29.84,29.77,15,4,16,0.00
2013-9-2,73.0,71.4,68.3,72.4,70.8,67.7,99,98,98,29.79,29.75,10,2,10,0.00
2013-9-3,72.4,72.4,72.4,71.8,71.8,71.8,98,98,98,29.78,29.78,2,2,5,0.00
2013-9-4,72.4,72.4,72.4,71.8,71.8,71.8,98,98,98,29.78,29.78,2,2,5,0.00
2013-9-5,72.4,72.4,72.4,71.8,71.8,71.8,98,98,98,29.78,29.78,2,2,5,0.00
2013-9-6,72.4,72.4,72.4,71.8,71.8,71.8,98,98,98,29.78,29.78,2,2,5,0.00
2013-9-7,72.4,72.4,72.4,71.8,71.8,71.8,98,98,98,29.78,29.78,2,2,5,0.00
2013-9-8,72.4,72.4,72.4,71.8,71.8,71.8,98,98,98,29.78,29.78,2,2,5,0.00
2013-9-9,72.4,72.4,72.4,71.8,71.8,71.8,98,98,98,29.78,29.78,2,2,5,0.00
2013-9-10,76.3,73.2,71.2,72.2,71.2,68.2,98,94,84,30.11,29.78,2,1,5,0.11
2013-9-11,82.0,76.0,72.8,75.1,71.7,68.5,91,87,76,30.11,30.04,0,0,0,0.00
2013-9-12,75.0,71.4,67.4,71.8,68.4,65.5,96,90,85,29.87,29.69,0,0,0,0.26
2013-9-13,76.2,69.6,60.7,68.6,62.0,51.2,95,78,55,29.84,29.62,0,0,0,0.10
2013-9-14,66.1,58.9,52.4,51.6,49.1,46.6,85,71,55,30.13,29.84,0,0,0,0.00
2013-9-15,73.0,59.9,49.3,59.7,50.5,45.0,86,72,42,30.23,30.08,0,0,0,0.00
2013-9-16,69.0,63.6,61.0,60.4,57.1,52.9,92,80,65,30.21,30.04,0,0,0,0.01
2013-9-17,61.7,56.1,51.6,53.0,43.7,39.9,84,63,50,30.43,30.21,0,0,0,0.00
2013-9-18,65.5,57.8,48.9,53.2,48.9,43.3,84,73,55,30.35,30.20,0,0,0,0.00
2013-9-19,59.7,59.7,59.7,51.8,51.8,51.8,75,75,75,30.21,30.21,0,0,0,0.00
2013-9-20,59.7,59.7,59.7,51.8,51.8,51.8,75,75,75,30.21,30.21,0,0,0,0.00
2013-9-21,59.7,59.7,59.7,51.8,51.8,51.8,75,75,75,30.21,30.21,0,0,0,0.00
2013-9-22,59.7,59.7,59.7,51.8,51.8,51.8,75,75,75,30.21,30.21,0,0,0,0.00
2013-9-23,59.7,59.7,59.7,51.8,51.8,51.8,75,75,75,30.21,30.21,0,0,0,0.00
2013-9-24,59.7,59.7,59.7,51.8,51.8,51.8,75,75,75,30.21,30.21,0,0,0,0.00
2013-9-25,59.7,59.7,59.7,51.8,51.8,51.8,75,75,75,30.21,30.21,0,0,0,0.00
2013-9-26,59.7,59.7,59.7,51.8,51.8,51.8,75,75,75,30.21,30.21,0,0,0,0.00
2013-9-27,59.7,59.7,59.7,51.8,51.8,51.8,75,75,75,30.21,30.21,0,0,0,0.00
2013-9-28,59.7,59.7,59.7,51.8,51.8,51.8,75,75,75,30.21,30.21,0,0,0,0.00
2013-9-29,64.3,61.9,59.7,57.3,53.8,51.8,82,75,68,30.21,30.07,0,0,0,0.00
2013-9-30,65.8,60.7,54.6,58.8,55.4,51.4,92,83,71,30.08,29.98,0,0,0,0.00
2013-10-1,74.7,64.9,57.2,64.9,58.7,53.4,89,81,58,30.01,29.90,0,0,0,0.00
2013-10-2,82.8,71.8,61.6,63.9,61.1,57.2,87,70,50,30.00,29.90,0,0,0,0.00
2013-10-3,71.2,68.0,63.4,63.9,60.8,55.3,86,78,60,30.11,30.00,0,0,0,0.00
2013-10-4,82.8,69.5,62.5,67.8,64.0,58.5,92,83,58,30.06,29.97,0,0,0,0.00
2013-10-5,71.8,66.6,65.5,65.4,63.9,63.1,95,91,80,30.09,29.99,0,0,0,0.00
2013-10-6,65.8,65.8,65.8,63.4,63.4,63.4,92,92,92,30.06,30.06,0,0,0,0.00
2013-10-7,65.8,65.8,65.8,63.4,63.4,63.4,92,92,92,30.06,30.06,0,0,0,0.00
2013-10-8,65.8,65.8,65.8,63.4,63.4,63.4,92,92,92,30.06,30.06,0,0,0,0.00
2013-10-9,65.8,63.7,59.9,63.4,59.1,52.3,92,85,75,30.32,30.06,0,0,0,0.00
2013-10-10,64.1,60.6,57.4,60.5,57.3,53.1,92,89,78,30.24,30.03,0,0,0,0.00
2013-10-11,65.2,63.2,61.7,61.7,60.4,59.4,96,91,85,30.06,29.97,0,0,0,0.00
2013-10-12,64.7,62.7,61.2,60.0,56.8,51.8,89,81,71,30.25,30.03,0,0,0,0.00
2013-10-13,61.3,59.5,58.5,57.4,53.8,50.8,89,81,75,30.37,30.25,0,0,0,0.00
2013-10-14,60.0,58.6,55.8,53.8,52.1,50.5,83,79,74,30.36,30.25,0,0,0,0.00
2013-10-15,62.4,59.3,52.7,58.2,54.1,49.8,93,83,72,30.26,30.09,0,0,0,0.00
2013-10-16,62.2,61.1,59.0,59.7,58.6,57.0,94,91,86,30.10,29.92,0,0,0,0.00
2013-10-17,68.5,63.1,60.4,63.9,61.0,58.4,96,93,82,29.93,29.70,0,0,0,0.00
2013-10-18,67.1,61.4,54.1,63.2,49.5,44.0,92,66,49,29.99,29.69,0,0,0,0.00
2013-10-19,61.9,56.8,49.9,57.4,49.6,43.3,92,77,70,30.00,29.77,0,0,0,0.00
2013-10-20,62.2,55.3,48.8,56.6,43.1,36.2,90,65,39,30.08,29.76,0,0,0,0.00
2013-10-21,67.3,55.9,46.3,49.7,43.7,38.4,79,65,36,30.16,29.99,0,0,0,0.00
2013-10-22,69.8,58.6,51.2,53.0,48.2,40.4,87,70,48,30.00,29.75,0,0,0,0.00
2013-10-23,54.4,50.6,44.3,46.8,41.5,37.7,80,71,59,29.81,29.60,0,0,0,0.00
2013-10-24,52.8,45.7,40.7,38.4,33.7,28.8,82,65,42,30.05,29.78,0,0,0,0.00
2013-10-25,53.2,45.4,39.3,35.4,32.6,30.1,74,62,44,30.26,30.05,0,0,0,0.00
2013-10-26,57.0,47.7,37.8,39.3,33.7,29.8,78,60,37,30.25,29.92,0,0,0,0.00
2013-10-27,58.0,50.9,45.1,36.5,35.2,33.6,66,55,42,30.14,29.89,0,0,0,0.00
2013-10-28,62.2,51.4,40.2,42.9,36.8,31.9,76,59,41,30.30,30.14,0,0,0,0.00
2013-10-29,55.9,52.4,50.6,45.8,43.5,40.3,81,72,58,30.40,30.30,0,0,0,0.00
2013-11-4,48.9,45.2,42.5,38.7,32.9,27.5,69,62,54,30.65,30.60,0,0,0,0.00
2013-11-5,53.9,51.6,48.7,46.2,42.5,37.6,76,71,66,30.64,30.48,0,0,0,0.00
2013-11-6,59.2,54.6,46.5,56.5,49.3,40.8,93,82,74,30.49,30.08,0,0,0,0.00
2013-11-7,64.3,56.2,43.5,60.6,52.0,34.4,96,86,69,30.08,29.76,0,0,0,0.00
2013-11-8,49.1,44.6,40.8,36.8,31.9,28.0,75,61,46,30.25,29.96,0,0,0,0.00
2013-11-9,52.6,44.9,37.4,36.9,30.9,26.1,76,59,39,30.32,30.01,0,0,0,0.00
2013-11-10,62.2,51.8,45.2,38.5,34.5,28.7,69,53,38,30.08,29.82,0,0,0,0.00
2013-11-11,56.9,49.2,41.5,36.9,31.0,26.8,58,50,35,30.23,29.98,0,0,0,0.00
2013-11-12,51.7,39.1,30.8,38.4,27.4,17.9,88,64,50,30.31,29.94,0,0,0,0.00
2013-11-13,39.7,33.3,27.2,22.5,17.4,11.8,68,53,33,30.39,30.30,24,6,24,0.00
2013-11-14,55.1,44.0,33.1,26.6,19.8,14.5,61,41,20,30.31,30.19,29,7,29,0.00
2013-11-15,56.6,47.3,41.3,43.7,34.8,26.1,73,62,42,30.27,30.17,17,3,17,0.00
2013-11-16,51.6,48.4,44.9,48.4,42.8,34.8,92,81,64,30.35,30.24,9,2,12,0.01
2013-11-17,58.6,54.5,49.2,57.4,53.3,47.0,98,96,92,30.27,29.80,12,2,12,0.00
2013-11-18,67.0,59.8,52.1,59.0,43.9,28.0,100,61,31,29.81,29.62,37,8,37,0.01
2013-11-19,51.9,44.3,36.6,30.9,26.6,23.6,61,50,40,30.35,29.79,32,10,32,0.00
2013-11-20,43.4,39.1,33.6,29.9,23.3,17.5,66,54,38,30.61,30.35,21,7,21,0.00
2013-11-21,51.2,48.3,43.3,45.0,38.9,29.5,80,70,58,30.61,30.40,19,8,19,0.00
2013-11-22,58.2,53.8,49.9,51.6,48.3,42.1,92,82,73,30.40,29.92,19,3,22,0.00
2013-11-23,54.0,43.8,32.6,50.2,29.1,16.1,87,57,40,30.03,29.91,33,11,35,0.00
2013-11-24,32.6,26.9,23.7,18.2,5.3,1.6,55,39,34,30.42,30.01,41,14,41,0.00
2013-11-25,40.9,31.4,23.2,18.7,13.6,7.1,62,48,35,30.52,30.36,17,5,18,0.00
2013-11-26,53.4,41.3,33.5,52.2,31.4,18.4,96,69,43,30.37,29.74,33,6,34,0.00
2013-11-27,59.7,47.0,35.4,59.1,44.4,22.0,98,91,58,29.78,29.33,41,15,41,0.01
2013-11-28,37.2,33.5,30.8,24.7,18.3,12.0,67,54,38,30.50,29.78,34,9,34,0.15
2013-11-29,40.2,34.2,29.8,25.1,21.0,18.7,73,59,45,30.72,30.49,15,3,18,0.24
2013-11-30,46.0,36.1,27.6,41.7,27.3,15.9,85,70,60,30.74,30.36,21,8,21,0.17
2013-12-1,49.9,42.6,35.5,42.4,35.7,30.7,86,77,56,30.36,30.01,12,3,12,0.02
2013-12-2,49.4,43.7,39.7,43.9,36.3,29.9,93,75,54,30.02,29.88,11,2,11,0.01
2013-12-3,52.9,44.7,40.9,43.0,40.2,36.1,98,85,63,30.00,29.87,10,3,10,0.00
2013-12-4,49.7,46.2,39.5,47.8,42.3,34.1,95,87,75,30.13,30.00,9,2,9,0.00
2013-12-5,53.0,50.3,48.6,51.9,49.2,47.7,98,96,94,30.12,29.95,13,3,14,0.00
2013-12-6,58.4,47.0,37.0,57.6,45.9,35.1,98,96,92,30.13,29.88,20,4,20,0.00
2013-12-7,40.2,36.5,32.0,35.2,30.1,20.8,93,78,61,30.52,30.08,21,7,22,0.00
2013-12-8,40.9,31.9,28.1,39.5,25.7,17.8,96,79,63,30.60,30.34,28,9,28,0.16
2013-12-9,45.9,41.0,37.0,45.1,39.7,34.6,97,95,91,30.34,29.98,27,10,33,0.23
2013-12-10,37.2,34.6,31.1,34.8,31.0,24.3,94,87,75,30.17,29.86,19,6,19,0.01
2013-12-11,36.7,32.0,26.8,24.9,21.2,18.1,80,65,49,30.37,30.17,23,5,23,0.23
2013-12-12,31.0,26.3,23.3,21.2,12.5,4.8,72,56,38,30.37,30.20,21,5,21,0.01
2013-12-13,39.4,31.4,22.9,20.8,16.5,11.6,64,54,42,30.34,30.16,27,4,27,0.04
2013-12-14,50.2,37.3,31.3,49.1,32.8,19.1,96,84,56,30.46,29.69,38,18,39,0.25
2013-12-15,53.4,40.2,34.3,52.6,34.8,23.6,97,82,61,29.88,29.47,38,10,40,0.04
2013-12-16,35.5,29.8,24.3,25.8,15.2,8.7,69,54,42,30.25,29.86,29,8,29,0.02
2013-12-17,44.7,32.9,25.6,42.2,27.9,12.1,94,82,55,30.23,29.91,24,6,24,0.26
2013-12-18,39.2,31.6,23.9,26.1,22.9,20.4,90,71,51,30.20,29.91,27,7,27,0.00
2013-12-19,52.3,40.5,29.8,33.1,27.8,21.1,75,62,43,30.22,30.04,20,2,20,0.01
2013-12-20,57.1,47.6,40.8,44.2,36.8,32.5,93,68,44,30.11,29.98,16,2,16,0.00
2013-12-21,60.4,49.7,45.9,57.5,47.0,43.4,97,90,81,30.01,29.90,14,4,14,0.00
2013-12-22,62.9,54.3,49.4,62.1,52.5,48.0,100,94,85,29.97,29.83,27,8,31,0.02
2013-12-23,57.7,50.6,41.9,57.1,48.9,34.8,98,94,76,30.15,29.89,22,6,25,0.15
2013-12-24,41.8,36.4,28.1,35.1,24.6,13.0,77,62,49,30.36,30.09,29,9,29,0.02
2013-12-25,33.4,26.2,19.7,22.8,12.8,8.0,71,57,43,30.54,30.36,26,6,26,0.01
2013-12-26,43.1,33.8,27.0,28.6,24.2,19.4,77,68,53,30.43,30.17,20,4,20,0.01
2013-12-27,46.2,37.3,29.4,26.5,23.2,18.2,75,58,36,30.40,30.27,21,3,21,0.00
2013-12-28,58.9,46.0,34.5,31.3,28.2,22.4,69,51,34,30.31,30.09,26,6,28,0.00
2013-12-29,56.7,45.5,41.7,55.8,38.7,29.5,97,79,52,30.09,29.39,29,7,29,0.89
2013-12-30,47.1,38.7,25.0,40.5,30.6,12.7,92,73,56,30.19,29.71,24,7,26,0.01
2013-12-31,39.8,30.3,23.0,26.4,16.7,11.2,67,57,47,30.31,30.08,25,7,26,0.00
2014-1-1,39.1,32.1,26.2,33.0,20.5,11.4,83,62,45,30.43,30.23,21,5,22,0.00
2014-1-2,40.2,32.8,24.4,37.1,30.6,23.2,96,92,83,30.23,29.61,25,11,26,0.00